Location: Invercargill
(46.4000°S, 168.3500°E)
Time: 17:41:03
(UTC+12:00)

BREEZE-M DEB (TANK) - Pass Details

Date: 14 May 2021
Orbit: 582 x 17136 km, 49.5° (Epoch: 13 June)

Event Time Altitude Azimuth Distance (km) Brightness Sun altitude
Rises 20:01:31 0° 286° (WNW) 6,434 9.4 -26.9°
Reaches altitude 10° 20:07:04 10° 284° (WNW) 3,999 8.1 -27.8°
Enters shadow 20:14:28 72° 236° (WSW) 849 3.7 -29.1°
